Location: Solstice Park, West Seattle
(47.5363°N, 122.3905°W)
Time: 07:54:56
(UTC-07:00)

ISS - Pass Details

Date: 16 May 2021
Orbit: 417 x 422 km, 51.6° (Epoch: 18 June)

Event Time Altitude Azimuth Distance (km) Brightness Sun altitude
Rises 04:47:19 0° 283° (WNW) 2,374 -0.3 -6.9°
Reaches altitude 10° 04:50:22 10° 253° (WSW) 1,505 -1.5 -6.5°
Maximum altitude 04:51:53 13° 226° (SW) 1,357 -1.8 -6.3°
Drops below altitude 10° 04:53:24 10° 199° (SSW) 1,501 -1.4 -6.1°
Sets 04:56:26 0° 169° (S) 2,361 -0.2 -5.7°
